sat.trackr.live / text

‹ back to catalog

THOR 6

NORAD 36033 · 2009-058B

PAYLOAD ACTIVE UNKNOWN

§ Identity

Operator
Country
NOR
Launch date
2009-10-29
Launch site
FRGUI
Launch vehicle
Mass (kg)
RCS (m²)
7.08

Purposes: comms

External: N2YO · Heavens-Above · Gunter

§ Orbital elements

Epoch: 2026-09-19T22:05:59.311104Z

Period
1,436.10 min
Inclination
0.0086°
Eccentricity
0.0001838
Mean motion
1.00271277 rev/d
Perigee alt
35,779.0 km
Apogee alt
35,794.5 km
Semi-major
42,164.9 km
B*
0.0000e+0
RAAN
178.0022°
Arg perigee
9.6899°
Mean anomaly
141.7989°
Rev number
6,195

§ Raw data

THOR 61 36033U 09058B   26262.92082536 -.00000014  00000+0  00000+0 0  99942 36033   0.0086 178.0022 0001838   9.6899 141.7989  1.00271277 61959

JSON: /api/v1/satellites/36033 · /tle

For live sub-satellite position, see the globe view (requires WebGL).

§ Visibility from observer

Set your observer location to see the next 7 days of passes ≥ 10°. The values pass through the URL so the page stays shareable.

No JS? Fill the form by hand. The geolocation button needs JavaScript.